Change the Weather History Date:

Wednesday, January 8, 2014

  Actual Average Record
Temperature  
Mean Temperature 9 °F -  
Max Temperature 18 °F 31 °F 63 °F (2008)
Min Temperature 0 °F 14 °F -7 °F (1977)
Degree Days  
Heating Degree Days 56    
Moisture  
Dew Point 3 °F    
Average Humidity 72    
Maximum Humidity 79    
Minimum Humidity 61    
Precipitation  
Precipitation 0.00 in - - ()
Sea Level Pressure  
Sea Level Pressure 30.42 in    
Wind  
Wind Speed 6 mph (South)    
Max Wind Speed 10 mph    
Max Gust Speed -    
Visibility 9 miles    
Events Snow    
Averages and records for this station are not official NWS values.
T = Trace of Precipitation, MM = Missing Value Source: NWS Daily Summary

Daily Weather History Graph

Daily Weather History Graph

Search for Another Location

Airport or City:

Trip Planner

Search our weather history database for the weather conditions in past years. The results will help you decide how hot, cold, wet, or windy it might be!

Date:

Astronomy

Jan. 08, 2014 Rise Set
Actual Time 7:47 AM EST 5:08 PM EST
Civil Twilight 7:16 AM EST 5:39 PM EST
Nautical Twilight 6:41 AM EST 6:13 PM EST
Astronomical Twilight 6:08 AM EST 6:47 PM EST
Moon 12:02 PM EST (1/8) 12:48 AM EST (1/8)
Length of Visible Light 10h 22m
Length of Day
9h 20m
First Quarter, 56% of the Moon is Illuminated
Jan 8
First Quarter
Jan 15
Full
Jan 24
Last Quarter
Jan 30
New
Feb 6
First Quarter

Hourly Weather History & Observations

Time (EST) Temp. Windchill Dew Point Humidity Pressure Visibility Wind Dir Wind Speed Gust Speed Precip Events Conditions
12:53 AM -0.0 °F -13.0 °F -8.0 °F 69% 30.40 in 10.0 mi SSW 6.9 mph - N/A   Clear
1:53 AM -0.0 °F -13.0 °F -7.1 °F 72% 30.40 in 10.0 mi SSW 6.9 mph - N/A   Clear
2:53 AM -0.0 °F -13.0 °F -6.0 °F 76% 30.43 in 10.0 mi SSW 6.9 mph - N/A   Clear
3:53 AM -0.0 °F -11.6 °F -6.0 °F 76% 30.43 in 10.0 mi South 5.8 mph - N/A   Clear
4:53 AM -0.0 °F -13.0 °F -6.0 °F 76% 30.43 in 10.0 mi South 6.9 mph - N/A   Clear
5:53 AM 1.0 °F -8.7 °F -5.1 °F 75% 30.43 in 10.0 mi South 4.6 mph - N/A   Clear
6:53 AM 1.9 °F -9.2 °F -4.0 °F 76% 30.43 in 10.0 mi South 5.8 mph - N/A   Mostly Cloudy
7:53 AM 3.9 °F - -2.0 °F 76% 30.44 in 10.0 mi Calm Calm - N/A   Overcast
8:53 AM 6.1 °F -5.6 °F -0.0 °F 76% 30.45 in 10.0 mi South 6.9 mph - N/A   Overcast
9:53 AM 8.1 °F -0.5 °F 1.0 °F 73% 30.48 in 10.0 mi Variable 4.6 mph - N/A   Overcast
10:53 AM 10.0 °F -1.9 °F 1.9 °F 70% 30.47 in 10.0 mi South 8.1 mph - N/A   Overcast
11:53 AM 12.0 °F -0.4 °F 3.0 °F 67% 30.45 in 10.0 mi SSW 9.2 mph - N/A   Clear
12:53 PM 14.0 °F 2.0 °F 3.0 °F 62% 30.42 in 10.0 mi South 9.2 mph - N/A   Partly Cloudy
1:53 PM 15.1 °F 6.4 °F 3.9 °F 61% 30.41 in 10.0 mi Variable 5.8 mph - N/A   Overcast
2:53 PM 16.0 °F 5.3 °F 5.0 °F 62% 30.41 in 10.0 mi South 8.1 mph - N/A   Overcast
3:53 PM 16.0 °F 7.4 °F 6.1 °F 65% 30.42 in 9.0 mi South 5.8 mph - 0.00 in   Overcast
4:33 PM 15.8 °F 6.1 °F 8.6 °F 73% 30.33 in 2.5 mi South 6.9 mph - 0.00 in Snow Light Snow
4:44 PM 15.8 °F 3.4 °F 8.6 °F 73% 30.33 in 2.5 mi South 10.4 mph - 0.00 in Snow Light Snow
4:53 PM 16.0 °F 5.3 °F 9.0 °F 74% 30.43 in 2.5 mi SSW 8.1 mph - 0.00 in Snow Light Snow
5:16 PM 15.8 °F 6.1 °F 8.6 °F 73% 30.33 in 3.0 mi South 6.9 mph - 0.00 in Snow Light Snow
5:30 PM 15.8 °F 8.6 °F 10.4 °F 79% 30.34 in 4.0 mi South 4.6 mph - 0.00 in Snow Light Snow
5:53 PM 16.0 °F 8.8 °F 9.0 °F 74% 30.43 in 7.0 mi South 4.6 mph - 0.00 in Snow Light Snow
6:53 PM 17.1 °F 11.7 °F 10.0 °F 74% 30.44 in 10.0 mi South 3.5 mph - 0.00 in   Overcast
7:53 PM 17.1 °F - 10.0 °F 74% 30.45 in 10.0 mi Calm Calm - N/A   Overcast
8:53 PM 17.1 °F 11.7 °F 10.0 °F 74% 30.45 in 10.0 mi South 3.5 mph - N/A   Overcast
9:53 PM 17.1 °F - 10.9 °F 77% 30.47 in 10.0 mi Calm Calm - N/A   Overcast
10:53 PM 18.0 °F - 10.9 °F 74% 30.48 in 10.0 mi Calm Calm - N/A   Overcast
11:53 PM 18.0 °F - 12.0 °F 78% 30.48 in 10.0 mi Calm Calm - N/A   Overcast